Siga o Apolo11 no Facebook   Siga o Apolo11 no Twiiter
Ciência, Espaço e Tecnologia




Elementos Keplerianos formato Two Line

Para que um programa de rastreio possa saber a localização exata de qualquer satélite no espaço e assim poder rastreá-lo corretamente, é necessário que ele seja carregado com algumas informações.

Estas informações são chamadas de Elementos Orbitais ou Elementos Keplerianos e consistem em 2 linhas com dezenas de números. Esses números nada mais são que os parâmetros orbitais do satélite, tais como altitude, atitude, excentricidade da órbita, número de órbitas por dia, etc.

Com base nestas informações o programa é capaz de determinar com bastante exatidão a posição de qualquer satélite no espaço e nos informar em qual horário este estará dentro do alcance de nossa estação. Para que isso seja feito com precisão é necessário que os dados estejam sempre bem atualizadas.

Devido aos parâmetros orbitais serem descritos em 2 linhas, estes formato é também conhecido internacionalmente por 2line (leia-se Two Line”).

Para atualizar seu programa de rastreio basta copiar os dados disponibilizados e fornece-los ao programa. Nossos elementos orbitais são atualizados diariamente.

NOAATodos os satélites ambientais da série NOAA
30 DiasSatélites lançados nos últimos 30 dias
ISSSatélites e foguetes relacionados à Estação Espacial Internacional
HAMSatélites construídos por radiomadores
CUBESatélites tipo cubo, com 10 centímetros de lado
METEOSatélites voltados à previsão do tempo
EDUSatélites construídos e operados por universidades
VIS100 satélites mais brilhantes que podem ser vistos a olho nú



Satélites série NOAA
NOAA 1 [-]              
1 04793U 70106A   20094.76920062 -.00000045  00000-0 -61358-5 0  9993
2 04793 101.6623 164.1278 0032062  85.2790  62.4327 12.53993728256722
NOAA 2 (ITOS-D) [-]     
1 06235U 72082A   20094.88780944 -.00000025  00000-0  13153-3 0  9992
2 06235 101.8432  64.8468 0004022 171.6688 203.2054 12.53122443171190
NOAA 3 [-]              
1 06920U 73086A   20094.91143487 -.00000032  00000-0  97458-4 0  9996
2 06920 102.0976  66.6836 0006405 339.3979  43.0851 12.40341882101047
NOAA 4 [-]              
1 07529U 74089A   20094.80550626 -.00000020  00000-0  15901-3 0  9990
2 07529 101.8007  64.9385 0008790 205.7491 213.9593 12.53140591 75756
NOAA 5 [-]              
1 09057U 76077A   20094.78770021 -.00000022  00000-0  17254-3 0  9992
2 09057 101.9786  64.4149 0009757 185.9484 235.0305 12.37751627974177
TIROS N [P]             
1 11060U 78096A   20094.76893094  .00000015  00000-0  28462-4 0  9991
2 11060  98.7477 153.7519 0009552 298.6799  61.3415 14.18262483357547
NOAA 6 [P]              
1 11416U 79057A   20094.69630707  .00000037  00000-0  29417-4 0  9991
2 11416  98.6557  93.5368 0011426 110.4683 249.7729 14.33571485126219
NOAA 7 [-]              
1 12553U 81059A   20094.78745330 -.00000003  00000-0  21390-4 0  9994
2 12553  99.0887 113.7467 0010660 237.6818 122.3324 14.17272849  3810
NOAA 8 [-]              
1 13923U 83022A   20094.69273388  .00000011  00000-0  21907-4 0  9999
2 13923  98.6143  80.8226 0016063  48.3575 311.8979 14.28698097927498
NOAA 9 [P]              
1 15427U 84123A   20094.83444975  .00000014  00000-0  29859-4 0  9998
2 15427  98.9335  48.8788 0013897 291.5000  88.3012 14.16093535822737
NOAA 10 [-]             
1 16969U 86073A   20094.74906499  .00000012  00000-0  21911-4 0  9999
2 16969  98.4999  88.2336 0012713 149.1781  24.1968 14.28093779745978
NOAA 11 [-]             
1 19531U 88089A   20094.80305813 -.00000005  00000-0  18344-4 0  9995
2 19531  98.4199 118.3928 0010777 344.7311  15.3537 14.15253249627003
NOAA 12 [-]             
1 21263U 91032A   20094.79364296 -.00000004  00000-0  16112-4 0  9990
2 21263  98.5094 106.9123 0013860 169.1555 190.9927 14.25911143502053
NOAA 13 [-]             
1 22739U 93050A   20094.76657028  .00000008  00000-0  26455-4 0  9990
2 22739  98.4596 106.7240 0010446 125.8269 234.3876 14.12751052373435
NOAA 14 [-]             
1 23455U 94089A   20094.88015003 -.00000030  00000-0  61224-5 0  9993
2 23455  98.5533 149.5810 0010561 112.1037 248.1259 14.14142337302994
NOAA 15 [B]             
1 25338U 98030A   20094.84590007  .00000030  00000-0  31148-4 0  9993
2 25338  98.7248 120.2491 0011483 117.7438 242.4908 14.25957205138346
NOAA 16 [-]             
1 26536U 00055A   20094.78865669 -.00000016  00000-0  14394-4 0  9995
2 26536  98.7391 165.6366 0009513 302.1548  57.8701 14.13248562303690
NOAA 17 [-]             
1 27453U 02032A   20094.80917746  .00000001  00000-0  18868-4 0  9991
2 27453  98.5767  42.9840 0012846  94.3090 265.9558 14.25062285924255
NOAA 18 [B]             
1 28654U 05018A   20094.85692261  .00000085  00000-0  70599-4 0  9990
2 28654  99.0529 150.5583 0015260  82.9104 277.3802 14.12500026766386
NOAA 19 [+]             
1 33591U 09005A   20094.85554063  .00000039  00000-0  46587-4 0  9992
2 33591  99.1970  98.2586 0012989 286.2731  73.7011 14.12401025574605
SUOMI NPP [+]           
1 37849U 11061A   20094.82238236 -.00000003  00000-0  19442-4 0  9997
2 37849  98.7310  33.7684 0001459  91.1543 292.8658 14.19547588437044
NOAA 20 [+]             
1 43013U 17073A   20094.85353601  .00000000  00000-0  20741-4 0  9993
2 43013  98.7122  33.9797 0001027 106.6527 253.4762 14.19550451123074


IMAGENS DE SATÉLITES !    Clique e conheça nosso Vídeo Workshop de sensoriamento remoto e imagens meteorológicas.
Apolo11.com - Todos os direitos reservados - 2001 - 2020
Política de Privacidade

"Estão todos malucos !" - D. Pedro II